Find Hawk 10A

NORAD ID: 60540 Int'l Des: 2024-149 Owner: HE360 Country: US Constellation: hawkeye-360 operational
LEOCIRCULARRETROGRADESSO

Current View

Loading 3D Globe...

About Hawk 10A

Description loading...

Upcoming Passes

Passes for default location (London). Set your location on the main map for personalized predictions.

Altitude History

Loading altitude history...

Two-Line Element Set

1 60540U 24149CA 26149.17997618 .00001585 00000-0 14476-3 0 9999
2 60540 97.6899 225.4184 0004620 121.5981 238.5691 14.96447226 97140
Epoch: May 29, 2026 • Age: 20 hours

Current Status

Altitude 606.3 km
Velocity 7.55 km/s
Sub-Earth Point -70.31°S, 126.2°E
Launch Date Aug 16, 2024
Age 1.7 years
Type other

Technical Details

Classification Payload
Mass 31.00 kg
Dry Mass 30.00 kg
Total Mass 31.00 kg
Length 0.45 m
Diameter 0.30 m
Span 1.00 m
Shape Box + 2 pan
Manufacturer UTIAS
Bus Type Hawk2G
Phase Status In Orbit
Owner/State HE360/US

Most Searched